Content
SEND FEEDBACK

Daily
Averages
Monthly
Summary
Canada

MONTREAL, QUEBEC


Home > North America > Canada > Quebec
Elevation: 118 feet     Latitude: 45 28N     Longitude: 073 45W

WEATHER
 
SELECT A DAY
Number of Records: 203,273;   Date Range: 1/1/95 - 12/16/14
 
SHARE

PRINT THIS DATA

[ ← Previous Day ]
WEATHER ALMANAC - AUGUST 18, 2014
[ Next Day → ]
[ °C ]   °F
Weather ElementAverageHighLow
Temperature63.3 °F71.6 °F (10:00 pm)53.6 °F (7:00 am)
Dewpoint49.5 °F53.6 °F (5:00 am)44.6 °F (5:00 am)
Humidity60.3 %77 % (4:00 am)37 % (4:00 pm)
Barometer29.88 in29.92 in (8:00 am)29.86 in (12:00 am)
Wind Speed9 mph13.8 mph (8:00 am)
Wind Gust20.7 mph (8:00 pm)
Weather ElementAverage
Visibility18.8 mi
Wind DirectionWNW (292.6 °)

Weather ElementTotal
Precipitation---
Heating Degree Days2.4 (Base 65)
Growing Degree Days12.6 (Base 50)
Averaged from 27 records on August 18, 2014
WEATHER CONDITIONS BREAKOUT
WIND DIRECTION BREAKOUT
WEATHER BY HOUR - AUGUST 18, 2014
[ °C ]   °F
Local TimeTemperatureDewpointHumidityBarometerVisibilityWind DirectionWind SpeedGust SpeedPrecipitationEventsConditions
12:00 AM62.6 °F53.6 °F72 %29.87 in15.0 miWNW (300°)9.2 mphMostly Cloudy
1:00 AM62.6 °F51.8 °F68 %29.87 in15.0 miWNW (300°)8.1 mphOvercast
2:00 AM61.0 °F52.0 °F65 %29.87 in15.0 miWest (280°)5.8 mphMostly Cloudy
2:00 AM60.8 °F51.8 °F72 %29.87 in15.0 miWest (280°)6.9 mphMostly Cloudy
3:00 AM60.8 °F50.0 °F68 %29.86 in15.0 miWNW (300°)9.2 mphMostly Cloudy
4:00 AM59.0 °F46.4 °F63 %29.86 in15.0 miNNW (330°)9.2 mphMostly Cloudy
5:00 AM55.4 °F44.6 °F67 %29.88 in15.0 miNNW (340°)8.1 mphScattered Clouds
6:00 AM53.6 °F46.4 °F77 %29.90 in15.0 miNW (310°)8.1 mphPartly Cloudy
7:00 AM53.6 °F46.4 °F77 %29.91 in15.0 miWNW (300°)6.9 mphPartly Cloudy
8:00 AM57.0 °F48.0 °F62 %29.92 in15.0 miWNW (300°)8.1 mphScattered Clouds
8:00 AM57.2 °F48.2 °F72 %29.92 in15.0 miWNW (300°)8.1 mphPartly Cloudy
9:00 AM59.0 °F46.4 °F63 %29.92 in15.0 miNNW (340°)8.1 mphPartly Cloudy
10:00 AM60.8 °F48.2 °F63 %29.92 in15.0 miNW (310°)6.9 mphPartly Cloudy
11:00 AM64.4 °F48.2 °F56 %29.91 in15.0 miNNW (340°)9.2 mphPartly Cloudy
12:00 PM66.2 °F48.2 °F52 %29.90 in15.0 miNW (310°)6.9 mphMostly Cloudy
1:00 PM68.0 °F50.0 °F52 %29.89 in30.0 miWest (260°)8.1 mphMostly Cloudy
2:00 PM69.0 °F49.0 °F37 %29.87 in28.0 miWNW (290°)9.2 mphScattered Clouds
2:00 PM68.0 °F48.2 °F49 %29.87 in30.0 miWSW (250°)8.1 mphScattered Clouds
3:00 PM69.8 °F51.8 °F53 %29.87 in30.0 miWest (280°)13.8 mphScattered Clouds
4:00 PM71.6 °F51.8 °F50 %29.86 in30.0 miWest (260°)12.7 mph20.7 mphScattered Clouds
5:00 PM71.6 °F50.0 °F46 %29.86 in30.0 miWest (260°)10.4 mph19.6 mphMostly Cloudy
6:00 PM71.6 °F50.0 °F46 %29.86 in30.0 miWest (270°)12.7 mph19.6 mphMostly Cloudy
8:00 PM67.0 °F51.0 °F45 %29.87 in15.0 miWSW (250°)12.7 mphPartly Cloudy
8:00 PM68.0 °F50.0 °F52 %29.87 in15.0 miWSW (250°)12.7 mphMostly Cloudy
9:00 PM64.4 °F51.8 °F64 %29.89 in15.0 miWest (260°)9.2 mphPartly Cloudy
10:00 PM62.6 °F51.8 °F68 %29.89 in15.0 miWest (270°)8.1 mphPartly Cloudy
11:00 PM62.6 °F51.8 °F68 %29.89 in15.0 miNorth (360°)5.8 mphClear
Hourly data recorded from CYUL, located miles away from Montreal, Quebec







STORIES FROM OUR PARTNERS